OpenBCM V2.0.2 (Linux)

Packet Radio Mailbox

IZ3LSV

[San Dona' di P. JN]

 Login: GUEST





  
LU9DCE > KEPS     26.12.17 18:46l 252 Lines 12500 Bytes #999 (0) @ LUNET
BID : 28089_LU9DCE
Read: GUEST
Subj: SAT TLE OF 26
Path: IZ3LSV<IQ2LB<IK1NHL<CX2SA<LU4ECL<LU9DCE
Sent: 171226/1601Z @:LU9DCE.TOR.BA.ARG.SOAM #:28089 [TORTUGUITAS] FBB7.0.8-beta
From: LU9DCE@LU9DCE.TOR.BA.ARG.SOAM
To  : KEPS@LUNET


            __    _  _  ___  ____   ___  ____    ____  ____  ____
           (  )  / )( \/ _ \(    \ / __)(  __)  (  _ \(  _ \/ ___)
           / (_/\) \/ (\__  )) D (( (__  ) _)    ) _ ( ) _ (\___ \
           \____/\____/(___/(____/ \___)(____)  (____/(____/(____/
               ESTACION DE PACKET RADIO - BUENOS AIRES (GF05OM)
                   BOLETINES INFORMATIVOS PROGRAMADOS (BIP)
                    LU9DCE@GMX.COM - RF 147070 @ 1200 BAUD
                        https://lu9dce.wordpress.com/

+------------------------------------------------------------------------------+
OSCAR 7
1  7530U 74089B   17359.92404799 -.00000027 +00000-0 +11229-3 0  9990
2  7530 101.6614 325.0289 0011986 312.1504 113.3742 12.53630370972656
OSCAR 11 (UoSAT 2)
1 14781U 84021B   17360.53981816  .00000098  00000-0  18293-4 0  9998
2 14781  97.6730  38.8977 0007109 293.2516  66.7949 14.82968626818855
OSCAR 19 (LUSAT)
1 20442U 90005G   17359.89701255 +.00000009 +00000-0 +19555-4 0  9996
2 20442 098.5943 294.6097 0010874 305.3966 054.6202 14.32882383459011
KITSAT B
1 22825U 93061C   17360.53849559  .00000019  00000-0  24967-4 0  9995
2 22825  98.8400 328.7460 0009222 125.8665 234.3374 14.30017531264898
POSAT 1
1 22826U 93061D   17360.17551804  .00000028  00000-0  28356-4 0  9995
2 22826  98.8341 328.4366 0009839 117.9318 242.2861 14.30348045265028
RADIO ROSTO
1 23439U 94085A   17359.94450090 -.00000045 +00000-0 -67687-4 0  9992
2 23439 064.8167 269.0201 0162822 212.7690 234.5918 11.27566311947031
JAS 2
1 24278U 96046B   17359.90289644 -.00000021 +00000-0 +14904-4 0  9991
2 24278 098.5326 217.3717 0349977 200.2892 158.4046 13.53080474054550
TECHSAT 1B
1 25397U 98043D   17359.85619834 +.00000005 +00000-0 +21398-4 0  9991
2 25397 098.6321 298.3335 0001883 128.8263 231.3084 14.23636707010843
ISS (ZARYA)
1 25544U 98067A   17360.43488321  .00001151  00000-0  24547-4 0  9994
2 25544  51.6416 159.9327 0002595 292.2213 126.6641 15.54213840 91653
PCSAT
1 26931U 01043C   17359.96182669 -.00000006 +00000-0 +29327-4 0  9995
2 26931 067.0520 316.3792 0005227 272.1939 087.8564 14.30488524847706
SAUDISAT 1C
1 27607U 02058C   17360.16894230  .00000054  00000-0  28378-4 0  9998
2 27607  64.5556 258.8627 0044048  12.7803 347.4404 14.75406337807432
CUTE-1
1 27844U 03031E   17360.01778982  .00000070  00000-0  51491-4 0  9992
2 27844  98.6886   6.2216 0010325 147.7754 212.4056 14.22084601751589
CUBESAT XI 4
1 27848U 03031J   17360.49217249  .00000055  00000-0  44885-4 0  9994
2 27848  98.6976   7.0255 0010108 155.7730 204.3925 14.21692866751523
MOZHAYETS 4
1 27939U 03042A   17360.50948216  .00000117  00000-0  29457-4 0  9991
2 27939  97.9645 139.3867 0012432 341.7812 107.4503 14.66643112761500
CUBESAT XI 5
1 28895U 05043F   17359.95998625  .00000199  00000-0  47135-4 0  9995
2 28895  97.8844 153.6890 0015577 255.7744 104.1729 14.63490539648539
CUTE-1.7+APD II
1 32785U 08021C   17360.50422283  .00000316  00000-0  40056-4 0  9998
2 32785  97.5548  15.8715 0011702 248.6751 111.3217 14.88035008523492
DELFI C3
1 32789U 08021G   17360.14377739  .00001407  00000-0  10159-3 0  9999
2 32789  97.5367  54.1630 0013213 161.6273 198.5433 15.05624550525742
SEEDS
1 32791U 08021J   17359.86531624 +.00000512 +00000-0 +57936-4 0  9995
2 32791 097.5482 020.1921 0012251 231.6045 128.4074 14.90428938523617
YUBELEINY
1 32953U 08025A   17360.40013164  .00000017  00000-0  49611-4 0  9996
2 32953  82.5032 120.1417 0018940 224.0448 135.9123 12.43080680435307
PRISM (HITOMI)
1 33493U 09002B   17360.34879581  .00000327  00000-0  34776-4 0  9998
2 33493  98.1460 250.6504 0015189 162.0308 198.1412 14.96015397484500
KKS-1 (KISEKI)
1 33499U 09002H   17360.16207951  .00000163  00000-0  32151-4 0  9993
2 33499  98.3450 171.3920 0010278 119.9439 240.2791 14.75277584479663
SWISSCUBE
1 35932U 09051B   17359.93056325 +.00000182 +00000-0 +52097-4 0  9993
2 35932 098.5203 142.1898 0008030 030.0926 330.0731 14.56103687438187
BEESAT
1 35933U 09051C   17359.97048870  .00000155  00000-0  45940-4 0  9993
2 35933  98.5242 143.6658 0006509  44.3376 315.8341 14.56213274438336
ITUPSAT 1
1 35935U 09051E   17360.40903674  .00000115  00000-0  37546-4 0  9996
2 35935  98.5355 144.3684 0008666  35.3467 324.8302 14.55397394438193
XIWANG-1 (HOPE-1)
1 36122U 09072B   17360.10108363 -.00000033  00000-0  23378-4 0  9995
2 36122 100.0864  17.7664 0007851 148.3512 211.8075 13.16342638385873
TISAT 1
1 36799U 10035E   17360.41044573  .00000448  00000-0  51773-4 0  9991
2 36799  98.0833 127.3391 0013446  59.7004 300.5541 14.90650368404419
JUGNU
1 37839U 11058B   17359.44988698  .00000315  00000-0  25992-4 0  9996
2 37839  19.9628  10.7478 0019148 131.2176  15.1078 14.12605096320773
SRMSAT
1 37841U 11058D   17360.18851182  .00000293  00000-0  15957-4 0  9994
2 37841  19.9731  51.9031 0012027  31.0543   3.4779 14.10595068320422
M-CUBED/EXP-1 PRIME
1 37855U 11061F   17360.52712285  .00001918  00000-0  10632-3 0  9990
2 37855 101.7200 329.7375 0177927 233.0259 125.4550 15.03941088335691
HORYU 2
1 38340U 12025D   17360.55692131  .00000294  00000-0  51352-4 0  9992
2 38340  98.3753  11.2691 0012422  44.9072 315.3138 14.75473209301653
STRAND 1
1 39090U 13009E   17359.63241464 +.00000051 +00000-0 +33084-4 0  9997
2 39090 098.5345 203.1043 0010302 092.2041 268.0324 14.35003342252913
BEESAT 3
1 39134U 13015E   17360.36793031  .00002085  00000-0  10876-3 0  9999
2 39134  64.8658 325.7329 0029666 233.5452 126.2940 15.18662400258656
SOMP
1 39135U 13015F   17359.91390015 +.00001674 +00000-0 +95304-4 0  9997
2 39135 064.8692 338.3504 0030889 256.5875 103.1807 15.16266702257987
BEESAT 2
1 39136U 13015G   17359.95573765 +.00001685 +00000-0 +97132-4 0  9990
2 39136 064.8700 340.5435 0032414 255.7327 104.0198 15.15755159257942
CUBEBUG 1
1 39153U 13018D   17360.20483937  .00000301  00000-0  46341-4 0  9993
2 39153  97.9832  91.4740 0017904 143.4173 216.8265 14.80313888252003
ZACUBE
1 39417U 13066B   17360.54269663  .00000314  00000-0  46067-4 0  9993
2 39417  97.6074  33.2203 0059160   2.0306 358.1137 14.80848743221240
TRITON 1
1 39427U 13066M   17360.05918526  .00000303  00000-0  56019-4 0  9995
2 39427  97.6363   2.5390 0115611  94.0466 267.3964 14.67586781219185
GOMX 1
1 39430U 13066Q   17360.48375768  .00000227  00000-0  49854-4 0  9995
2 39430  97.6792 345.0042 0152233 155.3072 205.5517 14.58994932217973
HUMSAT D
1 39433U 13066T   17359.91816787 +.00000713 +00000-0 +75868-4 0  9999
2 39433 097.6294 057.1440 0029732 300.6442 059.1846 14.91698788221418
50 SAT
1 39436U 13066W   17360.54605166  .00077594  00000-0  12158-2 0  9992
2 39436  97.7118 117.8736 0005946 106.7247 253.4658 15.53435237226320
CUBEBUG 2
1 39440U 13066AA  17359.95643567 +.00000334 +00000-0 +53522-4 0  9997
2 39440 097.6126 020.3953 0081472 038.9051 321.7984 14.75585849219173
FUNCUBE 1
1 39444U 13066AE  17359.75019937  .00000378  00000-0  53285-4 0  9991
2 39444  97.6089  33.7708 0058266   0.6652 359.4628 14.81608719219979
UWE-3
1 39446U 13066AG  17359.86959586 +.00000313 +00000-0 +48384-4 0  9991
2 39446 097.6088 026.1049 0070793 022.0679 338.3555 14.78118991218923
SPROUT
1 39770U 14029E   17360.49026019  .00000616  00000-0  75552-4 0  9991
2 39770  97.8758  98.0667 0010399  61.4747 298.7523 14.86600494194708
UNISAT 6
1 40012U 14033C   17359.74554629  .00000271  00000-0  48038-4 0  9992
2 40012  97.8310 237.1779 0059460  38.8007 321.7448 14.73741171189152
DUCHIFAT 1
1 40021U 14033M   17360.29478353  .00000636  00000-0  71512-4 0  9991
2 40021  97.9170 273.7038 0013889  33.3995 326.8096 14.90149957191209
QB50P1
1 40025U 14033R   17359.79816343  .00000402  00000-0  49140-4 0  9996
2 40025  97.9088 270.5175 0013475  40.2113 320.0098 14.88602762190996
CHUBUSAT 1
1 40300U 14070C   17360.11714940  .00000847  00000-0  40755-4 0  9997
2 40300  97.3814  76.3958 0021016 144.7921 302.9248 15.21310001173965
NUDT-PHONESAT
1 40900U 15049B   17360.21043142  .00003206  00000-0  14932-3 0  9999
2 40900  97.4429   5.5480 0012048 275.5896  84.3965 15.20577490125620
ZDPS 2A
1 40901U 15049C   17360.51391540  .00001271  00000-0  68100-4 0  9998
2 40901  97.4585   4.6083 0012222 279.3073  80.6778 15.16762471125481
ZDPS 2B
1 40902U 15049D   17360.20117184  .00001188  00000-0  64171-4 0  9996
2 40902  97.4470   2.6186 0012271 277.2536  82.7302 15.16574298125420
XW-2A
1 40903U 15049E   17360.48426836  .00002780  00000-0  72118-4 0  9993
2 40903  97.4047  28.4953 0012855 296.4569  63.5358 15.39815581127222
KAITUO 1A
1 40904U 15049F   17360.49583087  .00000805  00000-0  46784-4 0  9993
2 40904  97.4569   2.3613 0013186 279.0955 232.1925 15.14825390125358
OBJECT G
1 40905U 15049G   17360.50461642  .00000604  00000-0  36986-4 0  9998
2 40905  97.4548   0.7419 0014248 268.2598  91.7002 15.13811343125295
XW-2C
1 40906U 15049H   17360.47726229  .00000964  00000-0  55150-4 0  9993
2 40906  97.4574   2.1987 0013504 268.6543  91.3143 15.14945592125342
XW-2D
1 40907U 15049J   17360.51192379  .00001040  00000-0  59024-4 0  9992
2 40907  97.4546   1.9541 0012868 266.1975  93.7787 15.15078630125351
LILACSAT 2
1 40908U 15049K   17360.18417754  .00000523  00000-0  32933-4 0  9998
2 40908  97.4653   1.2063 0014486 267.4815  92.4758 15.13364535125206
XW-2F
1 40910U 15049M   17360.52345601  .00001527  00000-0  82472-4 0  9998
2 40910  97.4557   2.9712 0013634 262.4918  97.4766 15.16151562125283
XW-2B
1 40911U 15049N   17360.52343499  .00001005  00000-0  57208-4 0  9992
2 40911  97.4585   2.4333 0012775 266.7177  93.2594 15.15029264125250
KAITUO 1B
1 40912U 15049P   17359.98137611  .00001286  00000-0  65863-4 0  9995
2 40912  97.4507   4.8153 0013756 253.8072 190.6086 15.18319589125389
